Notices

What's New in latest Release from April 7th, 2021:

- Updated Glossary, including Speed of Maximum Gust, and Total Hourly Precipitation

- Updated national and regional climate services offices contacts and prices information

- Addition of station inventory lists for 1981-2010, 1971-2000, and 1961-1990 Normals.

If you haven't already, please take our survey and provide feedback about our website: https://eccc.sondage-survey.ca/f/LanguageSelection.aspx?s=442ca660-fcf1-47c0-95a9-59707d6fd709

Hourly Data Report for January 25, 2021

EDMUNDSTON
NEW BRUNSWICK
Current Station Operator: ECCC - MSC

47°25'00.000" N
68°19'28.040" W
154.20 m
8101303
71590
ERM

Download Data

Hourly Data (January 2021)
Hourly Data Report for January 25, 2021
TIME
LST
Temp Definition
°C
Dew Point Definition
°C
Rel Hum Definition
%
Precip. Amount Definition
mm

Wind Dir Definition
10's deg

Wind Spd Definition
km/h
Visibility Definition
km
Stn Press Definition
kPa
Hmdx Definition


Wind Chill Definition


Weather Definition


00:00 -7.7 -11.1 77 0.0 29 14   99.02   -14 LegendNANA
01:00 -7.8 -11.0 77 0.0 29 11   99.00   -13 LegendNANA
02:00 -7.5 -10.8 77 0.0 29 12   99.00   -13 LegendNANA
03:00 -7.3 -10.9 75 0.0 30 13   99.05   -13 LegendNANA
04:00 -7.4 -11.1 75 0.0 31 14   99.07   -13 LegendNANA
05:00 -7.5 -11.1 75 0.0 31 11   99.11   -13 LegendNANA
06:00 -7.6 -11.3 75 0.0 31 13   99.13   -13 LegendNANA
07:00 -7.7 -11.4 75 0.0 30 13   99.17   -13 LegendNANA
08:00 -7.9 -11.4 76 0.0 31 9   99.21   -12 LegendNANA
09:00 -7.9 -11.2 77 0.0 30 11   99.24   -13 LegendNANA
10:00 -7.7 -11.3 75 0.0 31 14   99.26   -14 LegendNANA
11:00 -7.6 -11.3 75 0.0 30 16   99.27   -14 LegendNANA
12:00 -6.8 -10.9 73 0.0 31 13   99.24   -12 LegendNANA
13:00 -6.7 -10.8 72 0.0 30 15   99.18   -13 LegendNANA
14:00 -6.2 -10.4 72 0.0 29 17   99.19   -12 LegendNANA
15:00 -6.1 -10.4 72 0.0 29 15   99.27   -12 LegendNANA
16:00 -6.2 -10.2 73 0.0 30 11   99.35   -11 LegendNANA
17:00 -6.5 -10.3 75 0.0 30 13   99.36   -12 LegendNANA
18:00 -6.6 -10.2 76 0.0 31 10   99.43   -11 LegendNANA
19:00 -6.5 -9.8 77 0.0 32 11   99.44   -11 LegendNANA
20:00 -6.7 -10.0 78 0.0 32 11   99.46   -12 LegendNANA
21:00 -7.0 -10.3 77 0.0 32 11   99.51   -12 LegendNANA
22:00 -7.5 -10.5 79 0.0 31 7   99.53   -11 LegendNANA
23:00 -7.5 -10.3 80 0.0 31 7   99.54   -11 LegendNANA

Notes on Data Quality.

Legend

  • E = Estimated
  • M = Missing
  • NA = Not Available*
  • [empty] = Indicates an unobserved value
Date modified: